Wind_Speed
20 18 18 17 19 21 23 25 23 22 22 25 27 28 31 30 32 41 42 41 42 41 44 48 50 50 47 44 42 40 40 41
27 25 21 21 22 21 24 22 24 25 28 27 27 31 32 35 43 39 36 39 38 48 47 49 51 45 43 40 42 43 43 41
26 26 22 24 25 26 27 23 22 26 26 27 29 31 32 33 31 35 38 43 50 51 45 45 47 46 43 40 41 44 45 44
23 26 26 22 19 18 17 15 17 22 26 28 31 33 34 36 34 34 43 49 48 47 47 47 45 47 47 46 45 46 48 46
25 20 16 11 12 15 19 20 22 25 27 29 32 33 33 34 39 44 45 43 49 50 50 50 50 47 47 47 47 47 47 48
14 14 13 14 16 20 23 26 28 28 29 31 33 36 38 40 42 43 49 49 47 47 47 46 45 45 46 47 48 49 50 50
13 17 17 17 20 24 24 22 25 27 32 38 41 41 42 44 46 48 48 46 46 46 45 45 47 48 48 47 48 49 49 47
14 17 18 22 23 28 34 34 33 33 35 41 41 43 47 49 51 50 47 45 45 44 44 44 45 46 48 50 50 47 48 42
8 8 12 14 15 21 35 38 40 42 41 47 44 47 53 54 56 53 48 46 45 44 44 47 49 50 49 48 45 42 39 38
7 12 18 22 26 30 34 39 42 44 44 50 45 47 52 59 54 51 48 47 44 44 46 48 47 46 45 41 40 39 40 41
12 14 19 26 32 36 39 42 42 44 49 46 45 47 54 53 50 48 46 46 46 46 46 47 46 44 41 38 35 37 38 37
21 25 27 29 29 36 37 38 41 44 46 43 42 44 46 48 39 40 43 43 49 49 47 49 48 45 41 37 35 34 34 34
25 26 28 32 37 37 41 41 42 42 40 41 44 38 49 39 42 48 43 41 43 44 48 47 44 40 36 34 34 35 34 33
28 29 40 39 40 42 42 42 40 39 40 40 43 41 47 47 41 50 45 45 37 44 44 41 41 37 37 35 34 30 29 31
30 38 41 39 44 43 39 36 35 36 38 38 41 44 49 51 47 50 59 34 36 38 39 39 43 39 34 31 32 32 33 34
40 40 38 42 41 39 38 37 35 37 39 41 46 48 47 46 50 53 41 32 34 37 38 36 45 39 31 34 37 37 40 42
39 38 41 42 39 38 34 39 40 39 41 44 47 46 43 48 51 45 26 33 35 38 33 41 42 32 36 40 44 44 45 45
38 40 40 35 32 33 41 40 41 45 49 49 42 43 48 50 54 33 31 34 35 35 35 40 32 36 41 43 45 47 44 41
37 34 26 28 33 40 43 45 48 50 47 43 41 42 42 45 41 22 31 34 33 34 37 34 34 38 39 42 43 42 43 40
Wind_Direction
196 199 206 210 222 237 253 271 286 303 301 301 307 308 303 301 299 302 301 298 299 301 303 300 300 299 300 293 296 296 293 295
202 206 221 210 217 246 259 289 298 290 293 304 309 306 300 301 300 294 290 294 293 303 301 306 309 306 299 299 299 296 294 292
210 217 225 236 255 264 268 278 284 289 296 303 305 298 290 288 280 283 292 299 300 306 305 304 303 302 300 298 296 295 295 293
219 233 255 268 264 261 264 271 290 300 300 296 289 285 284 288 289 288 289 299 303 304 304 304 303 303 304 303 301 299 300 298
238 262 275 257 258 270 279 291 298 297 288 286 288 290 288 289 292 296 302 302 301 302 303 304 304 304 303 305 305 303 301 298
287 279 266 269 282 288 298 301 299 297 295 293 289 293 297 300 303 301 303 305 308 309 305 304 303 303 302 300 299 300 299 299
300 301 295 295 296 299 304 310 323 320 315 313 312 314 311 307 306 306 305 303 304 305 303 301 302 303 304 304 302 301 300 297
337 331 327 322 319 317 324 326 323 316 319 321 311 311 311 308 308 309 305 305 306 303 304 305 306 307 308 309 307 306 304 299
328 331 323 313 301 297 308 316 317 316 311 316 313 309 310 308 305 303 303 307 305 306 308 310 311 310 308 306 305 304 300 297
308 291 291 297 292 297 306 311 311 315 309 310 307 301 299 302 301 300 302 303 304 307 308 309 308 307 307 304 300 295 294 291
268 283 283 286 289 297 302 309 310 305 302 303 302 300 297 300 299 303 308 307 306 307 308 309 312 312 309 306 300 298 294 293
270 290 300 297 294 303 307 308 304 302 302 306 304 303 303 305 308 315 314 315 314 306 313 315 316 315 310 307 303 299 297 297
292 297 299 301 306 316 313 311 307 306 308 312 318 315 321 305 313 319 311 308 313 320 321 319 315 311 304 302 301 302 302 300
293 304 314 311 311 314 313 312 310 314 315 316 321 316 315 305 293 312 314 300 317 324 321 321 325 317 309 307 307 311 312 306
305 306 310 310 313 316 319 322 319 317 312 313 311 306 308 310 304 314 309 298 327 325 327 329 327 317 316 321 318 314 309 305
309 307 309 316 319 323 327 326 317 316 313 309 309 307 309 312 309 315 293 323 321 326 327 323 322 318 323 322 317 313 310 307
312 311 317 319 324 326 317 313 318 314 309 305 305 307 308 309 309 312 312 329 314 324 313 318 322 322 322 319 314 313 312 309
312 315 317 324 320 309 310 312 309 307 309 308 309 297 296 307 310 298 331 321 318 315 315 323 323 326 321 315 315 315 313 308
313 320 319 311 305 307 309 306 308 311 313 326 324 319 311 310 307 322 329 323 301 304 326 325 324 319 314 314 317 313 314 314
Height
3172 3171 3170 3173 3171 3171 3170 3169 3169 3167 3169 3168 3165 3163 3161 3158 3156 3152 3148 3145 3144 3142 3138 3134 3132 3129 3125 3120 3114 3110 3107 3103
3167 3167 3169 3170 3169 3167 3165 3166 3166 3166 3165 3165 3164 3160 3156 3151 3149 3145 3143 3140 3136 3134 3128 3123 3118 3115 3113 3109 3103 3099 3097 3095
3166 3167 3168 3169 3171 3172 3170 3169 3168 3165 3163 3160 3158 3157 3153 3150 3146 3140 3134 3130 3125 3123 3118 3114 3108 3104 3101 3098 3094 3088 3087 3084
3166 3165 3166 3167 3167 3167 3167 3166 3165 3162 3159 3156 3154 3150 3147 3143 3139 3134 3129 3126 3121 3114 3108 3103 3098 3093 3088 3084 3081 3078 3074 3072
3166 3166 3165 3164 3163 3163 3161 3161 3161 3156 3152 3149 3146 3142 3139 3136 3132 3127 3124 3118 3112 3106 3099 3093 3088 3082 3077 3073 3069 3065 3061 3058
3163 3163 3162 3162 3161 3159 3157 3153 3151 3149 3144 3141 3136 3135 3133 3128 3123 3118 3112 3105 3099 3094 3087 3082 3076 3071 3067 3063 3058 3054 3050 3045
3159 3158 3158 3159 3157 3155 3151 3149 3144 3139 3135 3131 3127 3125 3121 3117 3113 3108 3102 3095 3090 3084 3078 3072 3067 3061 3056 3051 3047 3042 3038 3034
3157 3153 3151 3151 3150 3146 3143 3142 3141 3138 3133 3126 3120 3116 3111 3106 3101 3096 3090 3085 3081 3074 3067 3062 3057 3051 3045 3039 3033 3027 3022 3018
3156 3153 3152 3149 3146 3143 3141 3139 3134 3131 3127 3121 3115 3109 3103 3097 3092 3086 3080 3076 3069 3062 3056 3050 3044 3039 3034 3028 3023 3017 3012 3009
3153 3150 3148 3146 3143 3140 3137 3134 3129 3123 3117 3113 3108 3102 3095 3087 3081 3076 3072 3067 3060 3054 3048 3041 3035 3029 3023 3017 3012 3008 3003 2999
3149 3147 3145 3143 3140 3137 3133 3128 3123 3117 3110 3103 3099 3093 3086 3078 3073 3070 3064 3058 3051 3044 3038 3032 3025 3019 3013 3007 3002 2998 2993 2990
3148 3146 3142 3139 3135 3131 3126 3120 3113 3107 3102 3097 3090 3082 3075 3069 3064 3059 3054 3048 3042 3035 3028 3022 3016 3009 3002 2997 2992 2988 2985 2982
3144 3141 3138 3133 3128 3122 3115 3110 3104 3097 3090 3084 3078 3071 3065 3058 3053 3048 3043 3038 3032 3026 3019 3013 3005 3000 2994 2989 2985 2981 2977 2973
3137 3134 3128 3123 3118 3114 3108 3101 3094 3087 3081 3075 3070 3063 3057 3051 3043 3038 3031 3026 3022 3016 3010 3003 2997 2991 2985 2981 2977 2973 2970 2965
3130 3125 3120 3115 3109 3104 3098 3091 3085 3079 3074 3069 3064 3057 3048 3041 3036 3030 3022 3013 3012 3007 3000 2993 2988 2983 2978 2974 2970 2966 2961 2956
3123 3117 3112 3106 3099 3093 3088 3083 3077 3073 3066 3060 3053 3045 3038 3031 3028 3020 3013 3005 3004 2997 2991 2985 2981 2975 2971 2967 2962 2957 2951 2945
3115 3110 3103 3097 3090 3085 3080 3074 3069 3064 3058 3051 3044 3038 3031 3024 3017 3011 3001 3000 2996 2988 2984 2979 2974 2968 2963 2958 2952 2947 2941 2934
3107 3101 3095 3089 3084 3078 3072 3067 3062 3056 3050 3043 3035 3029 3022 3016 3008 3000 2996 2994 2989 2983 2978 2973 2968 2961 2956 2949 2942 2936 2930 2922
3100 3093 3088 3083 3077 3072 3066 3060 3055 3048 3039 3032 3026 3019 3013 3007 3002 2995 2990 2986 2982 2977 2973 2968 2961 2955 2949 2942 2936 2927 2920 2913